EW7966 Weather Reports


time (UTC)temp
F
wind
direction
speed
knots
gust
knots
rain 1hr
in
rain 24hr
in
rain mn
in
humidity
%
barometer
mb
20260503204505 66 300 4.3 10.4 0.00 0.00 0.00 16 1013.2
20260503204005 67 350 3.5 9.6 0.00 0.00 0.00 16 1013.3
20260503203505 67 21 3.5 9.6 0.00 0.00 0.00 13 1013.3
20260503203005 68 10 3.5 4.3 0.00 0.00 0.00 15 1013.4
20260503203002 68 10 2.6 4.3 0.00 0.00 0.00 15 1004.6
20260503202504 67 202 0.9 7.0 0.00 0.00 0.00 15 1013.5
20260503201506 67 28 3.5 11.3 0.00 0.00 0.00 16 1013.7
20260503201504 67 28 3.5 11.3 0.00 0.00 0.00 16 1004.9
20260503200505 66 326 5.2 8.7 0.00 0.00 0.00 15 1013.9
20260503200007 67 288 5.2 8.7 0.00 0.00 0.00 15 1014.0
20260503195505 67 267 6.1 9.6 0.00 0.00 0.00 15 1014.1
20260503195006 66 302 5.2 11.3 0.00 0.00 0.00 16 1014.2
20260503194504 66 302 5.2 13.0 0.00 0.00 0.00 17 1014.2
20260503194006 66 304 6.1 13.0 0.00 0.00 0.00 16 1014.3
20260503193505 65 302 5.2 15.6 0.00 0.00 0.00 16 1014.3
20260503193002 65 5 7.8 15.6 0.00 0.00 0.00 17 1005.7
20260503192005 65 345 6.1 11.3 0.00 0.00 0.00 18 1014.4
20260503191505 65 15 4.3 8.7 0.00 0.00 0.00 15 1014.5
20260503191503 65 15 3.5 8.7 0.00 0.00 0.00 15 1005.9
20260503191006 65 28 1.7 9.6 0.00 0.00 0.00 17 1014.6
20260503190500 66 338 6.1 13.0 0.00 0.00 0.00 17 1014.7
20260503190004 66 326 4.3 13.0 0.00 0.00 0.00 18 1006.2
20260503185506 66 330 4.3 11.3 0.00 0.00 0.00 16 1014.8
20260503185006 65 350 2.6 10.4 0.00 0.00 0.00 16 1014.8
20260503184505 64 272 5.2 13.0 0.00 0.00 0.00 18 1006.4
20260503184005 64 269 7.0 13.0 0.00 0.00 0.00 20 1015.0
20260503183504 64 303 6.1 12.2 0.00 0.00 0.00 18 1015.2
20260503183003 64 316 4.3 15.6 0.00 0.00 0.00 18 1006.7
20260503182506 64 290 7.8 15.6 0.00 0.00 0.00 18 1015.2
20260503182006 64 317 6.1 11.3 0.00 0.00 0.00 19 1015.3
20260503181505 64 301 5.2 13.9 0.00 0.00 0.00 18 1015.4
20260503181503 64 301 4.3 13.9 0.00 0.00 0.00 18 1007.0
20260503181006 64 288 9.6 16.5 0.00 0.00 0.00 19 1015.5
20260503180505 64 296 11.3 16.5 0.00 0.00 0.00 18 1015.4
20260503180007 64 300 7.0 13.9 0.00 0.00 0.00 19 1007.1
20260503175504 64 289 8.7 18.2 0.00 0.00 0.00 21 1015.7
20260503175005 64 323 6.1 14.8 0.00 0.00 0.00 20 1015.7
20260503174504 64 288 6.1 14.8 0.00 0.00 0.00 20 1015.7
20260503174006 64 300 7.8 14.8 0.00 0.00 0.00 20 1015.7
20260503173505 65 283 7.0 19.1 0.00 0.00 0.00 22 1015.9
20260503173009 63 267 6.1 19.1 0.00 0.00 0.00 23 1007.5
20260503173006 63 267 7.0 19.1 0.00 0.00 0.00 23 1015.9
20260503172505 63 285 7.0 18.2 0.00 0.00 0.00 20 1016.1
20260503172005 63 283 8.7 16.5 0.00 0.00 0.00 19 1016.1
20260503171507 63 288 11.3 16.5 0.00 0.00 0.00 19 1007.9
20260503171505 63 288 12.2 16.5 0.00 0.00 0.00 19 1016.3
20260503171005 64 281 5.2 15.6 0.00 0.00 0.00 20 1016.2
20260503170505 63 305 9.6 15.6 0.00 0.00 0.00 20 1016.3
20260503151003 59 186 2.6 8.7 0.00 0.00 0.00 27 1016.9
20260503150504 59 244 2.6 7.8 0.00 0.00 0.00 28 1016.9
20260503131006 49 274 1.7 5.2 0.00 0.00 0.00 43 1016.9
20260503130504 48 238 1.7 4.3 0.00 0.00 0.00 46 1016.9
20260503110504 43 207 2.6 6.1 0.00 0.00 0.00 48 1016.0
20260503090505 44 231 1.7 3.5 0.00 0.00 0.00 43 1016.3
20260503090110 44 224 1.7 3.5 0.00 0.00 0.00 44 1009.6
20260503081505 44 216 2.6 6.1 0.00 0.00 0.00 43 1016.3
20260503081502 44 216 2.6 6.1 0.00 0.00 0.00 43 1009.9
20260503081005 44 202 2.6 6.1 0.00 0.00 0.00 43 1016.3
20260503080504 45 238 1.7 6.1 0.00 0.00 0.00 42 1016.4
20260503072505 48 216 2.6 7.0 0.00 0.00 0.00 35 1016.7
20260503072005 48 207 2.6 7.0 0.00 0.00 0.00 34 1016.7
20260503071506 48 232 2.6 7.8 0.00 0.00 0.00 33 1016.7
20260503071503 48 232 1.7 7.8 0.00 0.00 0.00 33 1010.5
20260503071005 49 212 2.6 7.8 0.00 0.00 0.00 33 1016.7
20260503070506 49 214 2.6 9.6 0.00 0.00 0.00 32 1016.7
20260503055006 51 233 6.1 14.8 0.00 0.00 0.00 29 1017.0
20260503054503 51 190 6.1 14.8 0.00 0.00 0.00 29 1011.2
20260503054007 51 185 5.2 12.2 0.00 0.00 0.00 29 1017.1
20260503053505 51 166 5.2 9.6 0.00 0.00 0.00 29 1017.1
20260503053006 51 182 5.2 9.6 0.00 0.00 0.00 29 1011.3
20260503052505 51 215 5.2 12.2 0.00 0.00 0.00 28 1017.1
20260503052006 51 168 7.0 13.9 0.00 0.00 0.00 28 1017.0
20260503051505 51 188 6.1 12.2 0.00 0.00 0.00 29 1017.0
20260503051006 51 194 5.2 13.9 0.00 0.00 0.00 29 1017.1
20260503050505 51 176 6.1 13.9 0.00 0.00 0.00 29 1017.1
20260503050006 50 232 7.0 11.3 0.00 0.00 0.00 29 1017.1
20260503050003 50 232 6.1 11.3 0.00 0.00 0.00 29 1011.5
20260503045505 50 169 6.1 10.4 0.00 0.00 0.00 30 1017.2
20260503044504 49 172 4.3 7.8 0.00 0.00 0.00 31 1011.8
20260503043505 48 197 3.5 7.8 0.00 0.00 0.00 34 1017.4
20260503043003 47 196 3.5 7.8 0.00 0.00 0.00 34 1011.9
20260503041505 47 202 1.7 5.2 0.00 0.00 0.00 35 1017.5
20260503041503 47 202 1.7 5.2 0.00 0.00 0.00 35 1012.0
20260503041006 47 193 1.7 4.3 0.00 0.00 0.00 37 1017.4
20260503040505 47 231 0.9 2.6 0.00 0.00 0.00 37 1017.5
20260503040006 47 217 0.9 3.5 0.00 0.00 0.00 38 1017.5
20260503040004 47 217 0.0 3.5 0.00 0.00 0.00 38 1012.1
20260503035005 50 188 1.7 4.3 0.00 0.00 0.00 32 1017.5
20260503034505 50 183 1.7 4.3 0.00 0.00 0.00 32 1017.4
20260503034503 50 183 1.7 4.3 0.00 0.00 0.00 32 1011.9
20260503034006 50 192 2.6 6.1 0.00 0.00 0.00 31 1017.4
20260503033005 51 165 3.5 7.0 0.00 0.00 0.00 31 1017.4
20260503033003 51 165 2.6 7.0 0.00 0.00 0.00 31 1012.0
20260503032505 51 158 5.2 7.8 0.00 0.00 0.00 30 1017.4
20260503032005 51 187 4.3 7.0 0.00 0.00 0.00 31 1017.3
20260503031504 51 150 4.3 7.8 0.00 0.00 0.00 31 1011.9
20260503030505 52 188 5.2 8.7 0.00 0.00 0.00 31 1017.2
20260503030005 52 152 5.2 8.7 0.00 0.00 0.00 31 1011.9
20260503025505 52 160 5.2 8.7 0.00 0.00 0.00 31 1017.1
20260503025006 52 158 6.1 8.7 0.00 0.00 0.00 31 1017.1
20260503024505 52 155 5.2 8.7 0.00 0.00 0.00 32 1017.1
20260503024503 52 155 4.3 8.7 0.00 0.00 0.00 32 1011.8
20260503024007 52 165 5.2 8.7 0.00 0.00 0.00 32 1017.1
20260503023504 52 168 4.3 7.0 0.00 0.00 0.00 33 1017.0
20260503023005 52 159 4.3 7.0 0.00 0.00 0.00 32 1017.0
20260503023003 52 159 4.3 7.0 0.00 0.00 0.00 32 1011.8
20260503022505 53 152 4.3 7.8 0.00 0.00 0.00 33 1016.9
20260503022006 53 144 4.3 7.8 0.00 0.00 0.00 33 1016.9
20260503021559 54 159 4.3 7.0 0.00 0.00 0.00 32 1011.6
20260503021505 54 150 5.2 7.0 0.00 0.00 0.00 32 1016.9
20260503021503 54 150 4.3 7.0 0.00 0.00 0.00 32 1011.6
20260503021005 54 164 4.3 7.0 0.00 0.00 0.00 31 1016.8
20260503020505 54 162 5.2 8.7 0.00 0.00 0.00 31 1016.8
20260503020006 55 157 5.2 7.0 0.00 0.00 0.00 30 1016.8
20260503020004 55 157 5.2 7.0 0.00 0.00 0.00 30 1011.5
20260503015505 55 163 5.2 8.7 0.00 0.00 0.00 29 1016.7
20260503014505 57 161 6.1 8.7 0.00 0.00 0.00 28 1016.7
20260503014005 57 149 5.2 9.6 0.00 0.00 0.00 28 1016.6
20260503013006 58 176 6.1 9.6 0.00 0.00 0.00 27 1016.6
20260503013004 58 176 6.1 9.6 0.00 0.00 0.00 27 1011.4
20260503012505 59 162 6.1 10.4 0.00 0.00 0.00 25 1016.5
20260503012006 59 155 5.2 8.7 0.00 0.00 0.00 26 1016.5
20260503011506 60 175 5.2 9.6 0.00 0.00 0.00 25 1016.5
20260503011504 60 175 4.3 9.6 0.00 0.00 0.00 25 1011.4
20260503011005 61 171 6.1 9.6 0.00 0.00 0.00 24 1016.5
20260503010505 61 154 7.0 10.4 0.00 0.00 0.00 24 1016.5
20260503010007 61 186 7.0 12.2 0.00 0.00 0.00 23 1011.3
20260503005505 62 165 7.0 12.2 0.00 0.00 0.00 24 1016.5
20260503005002 62 143 5.2 9.6 0.00 0.00 0.00 23 1016.5
20260503004504 63 126 7.0 9.6 0.00 0.00 0.00 22 1016.5
20260503004008 63 138 1.7 3.5 0.00 0.00 0.00 20 1016.5
20260503003505 63 141 2.6 7.8 0.00 0.00 0.00 18 1016.5
20260503003006 63 141 2.6 7.8 0.00 0.00 0.00 19 1016.6
20260503003003 63 141 2.6 7.8 0.00 0.00 0.00 19 1011.6
20260503002506 63 174 4.3 6.1 0.00 0.00 0.00 18 1016.6
20260503001506 63 97 1.7 7.0 0.00 0.00 0.00 18 1016.7
20260503001503 63 97 0.9 7.0 0.00 0.00 0.00 18 1011.7
20260503001006 63 118 5.2 7.8 0.00 0.00 0.00 18 1016.7
20260503000505 64 146 5.2 7.8 0.00 0.00 0.00 19 1016.7
20260503000007 64 123 2.6 8.7 0.00 0.00 0.00 18 1016.8
20260503000004 64 129 2.6 8.7 0.00 0.00 0.00 18 1011.9
20260502235504 64 136 3.5 8.7 0.00 0.00 0.00 19 1016.8
20260502235006 64 126 5.2 8.7 0.00 0.00 0.00 19 1016.8
20260502234505 65 159 3.5 8.7 0.00 0.00 0.00 18 1016.9
20260502234503 65 159 2.6 8.7 0.00 0.00 0.00 18 1012.0
20260502234006 65 208 0.9 5.2 0.00 0.00 0.00 18 1016.8
20260502233505 64 150 1.7 6.1 0.00 0.00 0.00 19 1016.9
20260502233007 64 108 3.5 7.8 0.00 0.00 0.00 17 1012.2
20260502232505 64 211 2.6 12.2 0.00 0.00 0.00 17 1016.9
20260502232007 65 170 3.5 7.0 0.00 0.00 0.00 18 1016.8
20260502231505 64 207 0.0 5.2 0.00 0.00 0.00 17 1017.0
20260502231503 64 207 0.0 5.2 0.00 0.00 0.00 17 1012.4
20260502230504 64 213 2.6 8.7 0.00 0.00 0.00 18 1017.2
20260502230058 64 215 3.5 8.7 0.00 0.00 0.00 18 1012.6
20260502230004 64 192 2.6 7.8 0.00 0.00 0.00 18 1017.1
20260502230002 64 192 2.6 7.8 0.00 0.00 0.00 18 1012.6
20260502225006 64 178 3.5 7.0 0.00 0.00 0.00 19 1017.1
20260502224505 64 128 3.5 7.0 0.00 0.00 0.00 19 1017.1
20260502224503 64 128 2.6 7.0 0.00 0.00 0.00 19 1012.6
20260502224007 64 5 2.6 5.2 0.00 0.00 0.00 21 1017.2
20260502223059 63 67 1.7 10.4 0.00 0.00 0.00 19 1012.9
20260502223006 64 77 3.5 10.4 0.00 0.00 0.00 20 1017.3
20260502223003 64 77 2.6 10.4 0.00 0.00 0.00 20 1012.9
20260502222006 64 56 1.7 7.0 0.00 0.00 0.00 21 1017.3
20260502221505 64 159 3.5 10.4 0.00 0.00 0.00 20 1017.5
20260502221503 64 159 3.5 10.4 0.00 0.00 0.00 20 1013.2
20260502221005 63 202 4.3 13.0 0.00 0.00 0.00 20 1017.5
20260502220505 64 138 10.4 13.9 0.00 0.00 0.00 20 1017.5
20260502220008 64 182 3.5 8.7 0.00 0.00 0.00 20 1017.6
20260502220004 64 182 2.6 8.7 0.00 0.00 0.00 20 1013.4
20260502215505 64 250 2.6 8.7 0.00 0.00 0.00 18 1017.7
20260502215005 64 225 5.2 9.6 0.00 0.00 0.00 19 1017.8
20260502214505 64 233 2.6 7.0 0.00 0.00 0.00 18 1017.7
20260502214503 64 233 2.6 7.0 0.00 0.00 0.00 18 1013.6
20260502214006 64 324 0.9 5.2 0.00 0.00 0.00 19 1018.0
20260502213505 63 261 2.6 10.4 0.00 0.00 0.00 17 1018.0
20260502213006 63 279 5.2 10.4 0.00 0.00 0.00 19 1018.2
20260502213003 63 279 5.2 10.4 0.00 0.00 0.00 19 1014.1
20260502212505 63 192 3.5 7.8 0.00 0.00 0.00 18 1018.2
20260502212006 63 217 2.6 7.0 0.00 0.00 0.00 18 1018.4
20260502211509 63 220 1.7 10.4 0.00 0.00 0.00 19 1014.4
20260502211505 63 220 2.6 10.4 0.00 0.00 0.00 19 1018.4
20260502210505 63 162 1.7 8.7 0.00 0.00 0.00 18 1018.6
20260502210028 62 257 3.5 8.7 0.00 0.00 0.00 18 1018.8
20260502205505 62 178 2.6 9.6 0.00 0.00 0.00 17 1018.8